^^
Saratoga-Weather Station Historical Data
Daily Summary for September 15, 2020 Units:  English    Metric   Both
Daily Weekly Monthly Yearly Custom
  High: Low: Average:
Temperature: 69.8 °F 34.5 °F 50.7 °F
Dew Point: 34 °F 22.8 °F 29.8 °F
Humidity: 83% 18% 52%
Wind Speed: 10.1mph 0mph 1.6mph
Wind Gust: 13mph - -
Wind- - ESE
Pressure: 30.3 in 30.1 in -
Precipitation: 0 in    
Historical Graphs
 
 
Tabular Data for September 15, 2020
Time Temperature Dew Point Pressure Wind Wind Speed Wind Gust Humidity Rainfall Rate (Hourly) solar
00:04 39.4 °F 31.5 °F 30.3 in Calm     73% 0 in 0 W/m2
00:09 39.4 °F 31.8 °F 30.3 in Calm   1 mph 74% 0 in 0 W/m2
00:14 39 °F 31.5 °F 30.3 in SSW 0.9 mph 1 mph 74% 0 in 0 W/m2
00:19 39 °F 31.5 °F 30.3 in Calm     74% 0 in 0 W/m2
00:24 38.8 °F 31.6 °F 30.3 in Calm     75% 0 in 0 W/m2
00:29 38.8 °F 31.6 °F 30.3 in Calm     75% 0 in 0 W/m2
00:34 38.7 °F 31.5 °F 30.3 in Calm     75% 0 in 0 W/m2
00:39 38.5 °F 31.3 °F 30.2 in Calm     75% 0 in 0 W/m2
00:44 38.3 °F 31.5 °F 30.3 in Calm     76% 0 in 0 W/m2
00:49 38.1 °F 31.3 °F 30.3 in Calm     76% 0 in 0 W/m2
00:54 37.9 °F 31.5 °F 30.3 in SSW 0.9 mph 2 mph 77% 0 in 0 W/m2
00:59 37.9 °F 31.5 °F 30.3 in Calm   1 mph 77% 0 in 0 W/m2
01:04 37.9 °F 31.5 °F 30.3 in Calm   2 mph 77% 0 in 0 W/m2
01:10 37.9 °F 31.5 °F 30.3 in Calm   1 mph 77% 0 in 0 W/m2
01:15 37.9 °F 31.5 °F 30.3 in Calm   1 mph 77% 0 in 0 W/m2
01:20 37.8 °F 31.3 °F 30.3 in Calm     77% 0 in 0 W/m2
01:25 37.8 °F 31.3 °F 30.3 in Calm   1 mph 77% 0 in 0 W/m2
01:30 37.8 °F 31.5 °F 30.3 in Calm     78% 0 in 0 W/m2
01:35 37.6 °F 31.3 °F 30.3 in Calm     78% 0 in 0 W/m2
01:40 37.4 °F 31.1 °F 30.3 in Calm     78% 0 in 0 W/m2
01:45 37.2 °F 30.9 °F 30.2 in Calm     78% 0 in 0 W/m2
01:50 37 °F 31.1 °F 30.2 in Calm     79% 0 in 0 W/m2
01:55 37 °F 30.7 °F 30.2 in Calm     78% 0 in 0 W/m2
02:00 37 °F 31.1 °F 30.2 in Calm     79% 0 in 0 W/m2
02:05 37 °F 31.1 °F 30.2 in Calm     79% 0 in 0 W/m2
02:10 37 °F 31.1 °F 30.2 in Calm     79% 0 in 0 W/m2
02:15 37.2 °F 31.3 °F 30.2 in SE 2 mph 3 mph 79% 0 in 0 W/m2
02:20 37.6 °F 31.3 °F 30.2 in Calm   1 mph 78% 0 in 0 W/m2
02:25 37.8 °F 31.5 °F 30.2 in Calm     78% 0 in 0 W/m2
02:30 37.8 °F 31.3 °F 30.2 in East 0.9 mph 3 mph 77% 0 in 0 W/m2
02:35 37.9 °F 31.5 °F 30.2 in Calm   1 mph 77% 0 in 0 W/m2
02:40 38.1 °F 31.3 °F 30.2 in Calm   3 mph 76% 0 in 0 W/m2
02:45 37.9 °F 31.1 °F 30.2 in East 0.9 mph 2 mph 76% 0 in 0 W/m2
02:50 37.9 °F 31.1 °F 30.2 in Calm     76% 0 in 0 W/m2
02:55 37.8 °F 30.9 °F 30.2 in Calm   1 mph 76% 0 in 0 W/m2
03:01 37.6 °F 30.7 °F 30.2 in East 0.9 mph 1 mph 76% 0 in 0 W/m2
03:06 37.4 °F 30.9 °F 30.2 in East 0.9 mph 2 mph 77% 0 in 0 W/m2
03:11 37.2 °F 30.7 °F 30.2 in Calm   1 mph 77% 0 in 0 W/m2
03:16 37 °F 30.7 °F 30.2 in Calm   2 mph 78% 0 in 0 W/m2
03:21 36.9 °F 30.6 °F 30.2 in East 0.9 mph 2 mph 78% 0 in 0 W/m2
03:26 36.9 °F 30.9 °F 30.2 in Calm     79% 0 in 0 W/m2
03:31 36.7 °F 30.7 °F 30.2 in Calm   2 mph 79% 0 in 0 W/m2
03:36 36.5 °F 30.6 °F 30.2 in Calm     79% 0 in 0 W/m2
03:41 36.3 °F 30.4 °F 30.2 in Calm     79% 0 in 0 W/m2
03:46 36.1 °F 30.2 °F 30.2 in Calm     79% 0 in 0 W/m2
03:51 36 °F 30.4 °F 30.2 in Calm   1 mph 80% 0 in 0 W/m2
03:57 36 °F 30.4 °F 30.2 in Calm     80% 0 in 0 W/m2
04:02 36 °F 30.4 °F 30.2 in Calm     80% 0 in 0 W/m2
04:07 35.8 °F 30.2 °F 30.2 in Calm     80% 0 in 0 W/m2
04:12 35.8 °F 30.6 °F 30.2 in Calm   1 mph 81% 0 in 0 W/m2
04:17 35.8 °F 30.6 °F 30.2 in East 0.9 mph 1 mph 81% 0 in 0 W/m2
04:22 35.8 °F 30.6 °F 30.2 in East 0.9 mph 1 mph 81% 0 in 0 W/m2
04:27 35.8 °F 30.6 °F 30.2 in Calm   1 mph 81% 0 in 0 W/m2
04:32 35.6 °F 30.4 °F 30.2 in East 0.9 mph 2 mph 81% 0 in 0 W/m2
04:37 35.6 °F 30.4 °F 30.2 in Calm     81% 0 in 0 W/m2
04:42 35.8 °F 30.6 °F 30.2 in Calm   2 mph 81% 0 in 0 W/m2
04:47 35.6 °F 30.4 °F 30.2 in Calm     81% 0 in 0 W/m2
04:52 35.4 °F 30.2 °F 30.2 in Calm     81% 0 in 0 W/m2
04:57 35.2 °F 30 °F 30.2 in Calm     81% 0 in 0 W/m2
05:02 35.2 °F 30.4 °F 30.2 in Calm     82% 0 in 0 W/m2
05:07 35.2 °F 30.4 °F 30.2 in Calm     82% 0 in 0 W/m2
05:12 35.2 °F 30.4 °F 30.2 in Calm     82% 0 in 0 W/m2
05:17 35.1 °F 30.2 °F 30.2 in Calm     82% 0 in 0 W/m2
05:22 35.1 °F 30.2 °F 30.2 in Calm     82% 0 in 0 W/m2
05:27 35.1 °F 30.2 °F 30.2 in Calm     82% 0 in 0 W/m2
05:32 35.1 °F 30.2 °F 30.2 in Calm     82% 0 in 0 W/m2
05:37 34.9 °F 30 °F 30.2 in Calm     82% 0 in 0 W/m2
05:42 34.9 °F 30 °F 30.2 in Calm     82% 0 in 0 W/m2
05:47 34.7 °F 30 °F 30.2 in Calm   1 mph 83% 0 in 0 W/m2
05:52 34.7 °F 30 °F 30.2 in Calm     83% 0 in 0 W/m2
05:57 34.5 °F 29.8 °F 30.2 in Calm     83% 0 in 0 W/m2
06:02 34.5 °F 29.8 °F 30.2 in East 0.9 mph 2 mph 83% 0 in 0 W/m2
06:07 34.7 °F 30 °F 30.2 in Calm   1 mph 83% 0 in 0 W/m2
06:12 34.9 °F 30.2 °F 30.2 in SSE 0.9 mph 2 mph 83% 0 in 0 W/m2
06:17 35.1 °F 30.4 °F 30.2 in Calm   1 mph 83% 0 in 0 W/m2
06:22 35.1 °F 30.2 °F 30.2 in Calm     82% 0 in 0 W/m2
06:27 35.1 °F 30.2 °F 30.2 in Calm   1 mph 82% 0 in 0 W/m2
06:32 34.9 °F 30 °F 30.2 in Calm   1 mph 82% 0 in 0 W/m2
06:37 34.9 °F 30 °F 30.2 in Calm   1 mph 82% 0 in 0 W/m2
06:42 34.9 °F 30 °F 30.2 in Calm     82% 0 in 0 W/m2
06:47 34.9 °F 30.2 °F 30.2 in Calm   2 mph 83% 0 in 0 W/m2
06:52 35.1 °F 30.2 °F 30.2 in Calm   2 mph 82% 0 in 7 W/m2
06:57 35.1 °F 30.2 °F 30.2 in Calm   2 mph 82% 0 in 9 W/m2
07:02 35.1 °F 30.2 °F 30.2 in SSE 2 mph 3 mph 82% 0 in 12 W/m2
07:07 35.2 °F 30.4 °F 30.2 in Calm   2 mph 82% 0 in 14 W/m2
07:12 35.2 °F 30.4 °F 30.2 in Calm   1 mph 82% 0 in 19 W/m2
07:17 35.2 °F 30.4 °F 30.2 in Calm   4 mph 82% 0 in 21 W/m2
07:23 35.2 °F 30 °F 30.2 in SSE 0.9 mph 1 mph 81% 0 in 26 W/m2
07:28 35.4 °F 30.2 °F 30.2 in SSE 0.9 mph 1 mph 81% 0 in 30 W/m2
07:33 35.4 °F 30.2 °F 30.2 in SSE 0.9 mph 1 mph 81% 0 in 33 W/m2
07:38 35.6 °F 30.4 °F 30.2 in Calm     81% 0 in 35 W/m2
07:43 35.6 °F 30.4 °F 30.2 in Calm     81% 0 in 39 W/m2
07:48 35.8 °F 30.6 °F 30.2 in South 0.9 mph 2 mph 81% 0 in 42 W/m2
07:53 35.8 °F 30.6 °F 30.2 in Calm     81% 0 in 56 W/m2
07:58 35.8 °F 30.6 °F 30.2 in Calm     81% 0 in 76 W/m2
08:03 36 °F 30.4 °F 30.2 in Calm     80% 0 in 90 W/m2
08:08 36.1 °F 30.9 °F 30.2 in Calm     81% 0 in 107 W/m2
08:13 36.3 °F 30.7 °F 30.2 in Calm     80% 0 in 116 W/m2
08:18 36.9 °F 31.3 °F 30.2 in Calm     80% 0 in 113 W/m2
08:23 37 °F 31.1 °F 30.2 in Calm     79% 0 in 125 W/m2
08:28 37.4 °F 31.5 °F 30.2 in South 0.9 mph 1 mph 79% 0 in 118 W/m2
08:33 37.9 °F 31.5 °F 30.2 in Calm   1 mph 77% 0 in 135 W/m2
08:38 38.1 °F 31.6 °F 30.2 in Calm     77% 0 in 128 W/m2
08:43 38.7 °F 32 °F 30.2 in Calm     77% 0 in 153 W/m2
08:48 39 °F 32.2 °F 30.2 in ENE 0.9 mph 3 mph 76% 0 in 193 W/m2
08:53 39.6 °F 32 °F 30.2 in ENE 2 mph 3 mph 74% 0 in 239 W/m2
08:58 40.3 °F 32.4 °F 30.2 in ESE 0.9 mph 3 mph 73% 0 in 330 W/m2
09:03 41.2 °F 32.5 °F 30.2 in East 0.9 mph 5 mph 71% 0 in 348 W/m2
09:08 41.7 °F 32.4 °F 30.2 in East 2 mph 3 mph 69% 0 in 346 W/m2
09:13 42.4 °F 32.7 °F 30.2 in East 2 mph 4 mph 68% 0 in 352 W/m2
09:18 43.2 °F 32.2 °F 30.2 in ENE 4.9 mph 6 mph 65% 0 in 350 W/m2
09:23 43.9 °F 32.5 °F 30.2 in ESE 2.9 mph 5 mph 64% 0 in 381 W/m2
09:28 44.2 °F 32.4 °F 30.2 in Calm   3 mph 63% 0 in 392 W/m2
09:33 45 °F 32.7 °F 30.2 in East 2 mph 4 mph 62% 0 in 406 W/m2
09:38 45.7 °F 33.1 °F 30.2 in ESE 6.9 mph 7 mph 61% 0 in 420 W/m2
09:43 46.4 °F 32.9 °F 30.2 in East 2.9 mph 3 mph 59% 0 in 413 W/m2
09:48 46.8 °F 32.7 °F 30.2 in ENE 4 mph 6 mph 58% 0 in 60 W/m2
09:53 47.5 °F 33.8 °F 30.2 in East 2.9 mph 7 mph 59% 0 in 457 W/m2
09:58 47.8 °F 33.3 °F 30.2 in SE 2.9 mph 5 mph 57% 0 in 466 W/m2
10:03 48.6 °F 34 °F 30.2 in NE 2.9 mph 4 mph 57% 0 in 475 W/m2
10:08 49.1 °F 32.7 °F 30.2 in ENE 4 mph 12 mph 53% 0 in 473 W/m2
10:13 49.6 °F 32.7 °F 30.2 in East 6.9 mph 9 mph 52% 0 in 471 W/m2
10:18 50.5 °F 31.6 °F 30.2 in ENE 6.9 mph 10 mph 48% 0 in 504 W/m2
10:23 51.1 °F 31.1 °F 30.2 in ENE 4 mph 13 mph 46% 0 in 515 W/m2
10:28 51.3 °F 31.1 °F 30.2 in East 4.9 mph 5 mph 46% 0 in 496 W/m2
10:33 51.6 °F 31.5 °F 30.2 in ENE 2.9 mph 8 mph 46% 0 in 547 W/m2
10:38 52.2 °F 31.5 °F 30.2 in NNE 2.9 mph 4 mph 45% 0 in 524 W/m2
10:43 52.5 °F 31.3 °F 30.2 in East 4 mph 4 mph 44% 0 in 564 W/m2
10:48 52.9 °F 30.9 °F 30.2 in ESE 4 mph 9 mph 43% 0 in 573 W/m2
10:53 53.2 °F 30.7 °F 30.2 in NE 4 mph 8 mph 42% 0 in 585 W/m2
10:58 53.6 °F 31.1 °F 30.2 in ESE 6.9 mph 7 mph 42% 0 in 589 W/m2
11:04 54 °F 30.7 °F 30.2 in East 2.9 mph 11 mph 41% 0 in 599 W/m2
11:09 53.8 °F 31.8 °F 30.2 in ESE 4 mph 6 mph 43% 0 in 601 W/m2
11:14 54.3 °F 31.1 °F 30.2 in ENE 0.9 mph 11 mph 41% 0 in 629 W/m2
11:19 54.9 °F 30.9 °F 30.2 in ESE 6.9 mph 9 mph 40% 0 in 608 W/m2
11:24 55 °F 31.1 °F 30.2 in ESE 6.9 mph 8 mph 40% 0 in 638 W/m2
11:29 55.2 °F 30.7 °F 30.2 in East 6.9 mph 7 mph 39% 0 in 656 W/m2
11:34 55.4 °F 29.5 °F 30.2 in ENE 4.9 mph 8 mph 37% 0 in 657 W/m2
11:39 55.4 °F 30.9 °F 30.2 in ENE 2 mph 8 mph 39% 0 in 626 W/m2
11:44 55.6 °F 29.7 °F 30.2 in NE 4 mph 6 mph 37% 0 in 661 W/m2
11:49 55.8 °F 31.1 °F 30.2 in East 2.9 mph 6 mph 39% 0 in 680 W/m2
11:54 56.1 °F 30.2 °F 30.2 in NE 4 mph 7 mph 37% 0 in 696 W/m2
12:00 56.3 °F 30.4 °F 30.2 in East 4.9 mph 7 mph 37% 0 in 708 W/m2
12:05 56.7 °F 29.3 °F 30.2 in SE 4 mph 9 mph 35% 0 in 689 W/m2
12:10 57.4 °F 29.3 °F 30.2 in NNE 2 mph 13 mph 34% 0 in 717 W/m2
12:15 57.6 °F 28.6 °F 30.2 in ESE 4 mph 8 mph 33% 0 in 707 W/m2
12:20 57.9 °F 28.9 °F 30.2 in NE 4.9 mph 13 mph 33% 0 in 717 W/m2
12:25 58.3 °F 29.3 °F 30.2 in ENE 2 mph 10 mph 33% 0 in 722 W/m2
12:30 58.5 °F 30.2 °F 30.2 in East 2.9 mph 8 mph 34% 0 in 710 W/m2
12:35 58.6 °F 29.7 °F 30.2 in ENE 0.9 mph 4 mph 33% 0 in 733 W/m2
12:40 59 °F 30 °F 30.2 in NE 4 mph 6 mph 33% 0 in 722 W/m2
12:45 58.8 °F 29.8 °F 30.2 in SE 2 mph 11 mph 33% 0 in 738 W/m2
12:50 59.2 °F 30.7 °F 30.2 in East 2.9 mph 6 mph 34% 0 in 740 W/m2
12:55 59.5 °F 29.7 °F 30.2 in NE 4.9 mph 7 mph 32% 0 in 731 W/m2
13:00 59.9 °F 30 °F 30.2 in ESE 2 mph 8 mph 32% 0 in 714 W/m2
13:05 60.4 °F 29.7 °F 30.2 in ESE 2.9 mph 8 mph 31% 0 in 744 W/m2
13:10 60.1 °F 28.6 °F 30.2 in SE 2 mph 8 mph 30% 0 in 756 W/m2
13:15 60.3 °F 28.8 °F 30.2 in ESE 2 mph 6 mph 30% 0 in 759 W/m2
13:20 60.3 °F 30.2 °F 30.2 in ESE 0.9 mph 4 mph 32% 0 in 724 W/m2
13:25 60.4 °F 28.9 °F 30.2 in ENE 2 mph 4 mph 30% 0 in 689 W/m2
13:30 61.2 °F 28.6 °F 30.2 in NNE 4 mph 8 mph 29% 0 in 765 W/m2
13:35 61.5 °F 28 °F 30.2 in East 0.9 mph 5 mph 28% 0 in 766 W/m2
13:40 61.7 °F 29.1 °F 30.2 in NNE 4.9 mph 7 mph 29% 0 in 751 W/m2
13:45 61.9 °F 30.9 °F 30.2 in NE 10.1 mph 10 mph 31% 0 in 670 W/m2
13:50 61.5 °F 28.9 °F 30.2 in WNW 0.9 mph 12 mph 29% 0 in 744 W/m2
13:55 62.1 °F 28.6 °F 30.2 in East 2 mph 8 mph 28% 0 in 751 W/m2
14:00 62.2 °F 28.8 °F 30.2 in South 2 mph 12 mph 28% 0 in 745 W/m2
14:05 62.6 °F 29.1 °F 30.2 in ESE 4.9 mph 7 mph 28% 0 in 729 W/m2
14:10 63.1 °F 29.5 °F 30.2 in SSE 0.9 mph 12 mph 28% 0 in 752 W/m2
14:15 63.3 °F 27.9 °F 30.2 in Calm   4 mph 26% 0 in 729 W/m2
14:20 63.5 °F 25 °F 30.2 in East 4 mph 9 mph 23% 0 in 714 W/m2
14:25 64 °F 28.4 °F 30.2 in NNE 8.1 mph 8 mph 26% 0 in 710 W/m2
14:30 63.9 °F 26.4 °F 30.2 in East 0.9 mph 3 mph 24% 0 in 733 W/m2
14:35 64.2 °F 27.7 °F 30.2 in SE 0.9 mph 6 mph 25% 0 in 731 W/m2
14:40 64.6 °F 27 °F 30.2 in NE 2.9 mph 4 mph 24% 0 in 731 W/m2
14:45 64.8 °F 26.1 °F 30.2 in ENE 2.9 mph 5 mph 23% 0 in 707 W/m2
14:50 65.5 °F 26.8 °F 30.2 in East 2.9 mph 7 mph 23% 0 in 696 W/m2
14:55 65.5 °F 24.4 °F 30.2 in NE 6 mph 12 mph 21% 0 in 701 W/m2
15:00 65.5 °F 24.4 °F 30.2 in ENE 2.9 mph 10 mph 21% 0 in 652 W/m2
15:05 65.7 °F 25.7 °F 30.2 in ENE 4 mph 10 mph 22% 0 in 638 W/m2
15:10 65.8 °F 25.9 °F 30.1 in ENE 0.9 mph 9 mph 22% 0 in 643 W/m2
15:15 65.7 °F 24.6 °F 30.1 in North 2 mph 4 mph 21% 0 in 677 W/m2
15:20 65.8 °F 27 °F 30.1 in East 4.9 mph 10 mph 23% 0 in 661 W/m2
15:25 66 °F 25 °F 30.1 in ESE 0.9 mph 7 mph 21% 0 in 612 W/m2
15:30 66.2 °F 25.2 °F 30.1 in East 4 mph 7 mph 21% 0 in 624 W/m2
15:35 66.6 °F 25.3 °F 30.1 in SSE 2.9 mph 5 mph 21% 0 in 619 W/m2
15:40 66.9 °F 24.6 °F 30.1 in East 2.9 mph 9 mph 20% 0 in 626 W/m2
15:45 67.1 °F 25.9 °F 30.1 in ENE 4.9 mph 11 mph 21% 0 in 640 W/m2
15:50 67.5 °F 27.3 °F 30.1 in ENE 4 mph 4 mph 22% 0 in 605 W/m2
15:55 67.8 °F 26.4 °F 30.1 in North 2.9 mph 11 mph 21% 0 in 596 W/m2
16:00 67.8 °F 25.3 °F 30.1 in ENE 2 mph 7 mph 20% 0 in 606 W/m2
16:05 68.2 °F 26.8 °F 30.1 in ENE 2 mph 3 mph 21% 0 in 594 W/m2
16:10 68.4 °F 24.4 °F 30.1 in ENE 2 mph 4 mph 19% 0 in 555 W/m2
16:15 68.5 °F 28.2 °F 30.1 in ENE 2.9 mph 8 mph 22% 0 in 492 W/m2
16:20 68.5 °F 27.1 °F 30.1 in SE 2 mph 5 mph 21% 0 in 450 W/m2
16:25 68.5 °F 28.2 °F 30.1 in East 0.9 mph 4 mph 22% 0 in 513 W/m2
16:30 68.7 °F 24.8 °F 30.1 in ENE 0.9 mph 9 mph 19% 0 in 563 W/m2
16:35 68.9 °F 25 °F 30.1 in ESE 0.9 mph 3 mph 19% 0 in 512 W/m2
16:40 69.1 °F 25.2 °F 30.1 in East 2 mph 7 mph 19% 0 in 504 W/m2
16:45 69.4 °F 28.9 °F 30.1 in East 2 mph 4 mph 22% 0 in 462 W/m2
16:50 69.6 °F 26.8 °F 30.1 in ENE 4.9 mph 8 mph 20% 0 in 504 W/m2
16:55 69.8 °F 27 °F 30.1 in East 2 mph 4 mph 20% 0 in 397 W/m2
17:00 69.6 °F 24.3 °F 30.1 in NNE 0.9 mph 6 mph 18% 0 in 497 W/m2
17:05 69.6 °F 25.5 °F 30.1 in ENE 6 mph 10 mph 19% 0 in 464 W/m2
17:10 69.4 °F 25.3 °F 30.1 in ENE 2 mph 5 mph 19% 0 in 445 W/m2
17:15 69.4 °F 26.6 °F 30.1 in NE 0.9 mph 7 mph 20% 0 in 374 W/m2
17:20 69.4 °F 25.3 °F 30.1 in SE 0.9 mph 4 mph 19% 0 in 436 W/m2
17:25 69.3 °F 26.4 °F 30.1 in SE 2 mph 7 mph 20% 0 in 299 W/m2
17:31 69.3 °F 25.2 °F 30.1 in ENE 0.9 mph 8 mph 19% 0 in 371 W/m2
17:36 69.1 °F 25.2 °F 30.1 in ESE 2 mph 6 mph 19% 0 in 374 W/m2
17:41 69.3 °F 26.4 °F 30.1 in East 2.9 mph 5 mph 20% 0 in 339 W/m2
17:46 69.4 °F 27.9 °F 30.1 in ENE 2 mph 6 mph 21% 0 in 318 W/m2
17:51 69.3 °F 26.4 °F 30.1 in ENE 4 mph 5 mph 20% 0 in 403 W/m2
17:56 69.1 °F 26.2 °F 30.1 in East 2 mph 5 mph 20% 0 in 401 W/m2
18:01 69.1 °F 25.2 °F 30.1 in SSE 2 mph 8 mph 19% 0 in 287 W/m2
18:06 68.7 °F 24.8 °F 30.1 in SSE 2 mph 5 mph 19% 0 in 229 W/m2
18:11 68.5 °F 27.1 °F 30.1 in NE 2 mph 5 mph 21% 0 in 274 W/m2
18:16 68.4 °F 24.4 °F 30.1 in ENE 0.9 mph 7 mph 19% 0 in 262 W/m2
18:21 68.4 °F 25.7 °F 30.1 in NE 2.9 mph 6 mph 20% 0 in 237 W/m2
18:26 68.2 °F 27.9 °F 30.1 in East 4 mph 6 mph 22% 0 in 283 W/m2
18:31 68.2 °F 24.3 °F 30.1 in East 2.9 mph 7 mph 19% 0 in 274 W/m2
18:36 68.2 °F 25.5 °F 30.1 in ENE 4.9 mph 9 mph 20% 0 in 207 W/m2
18:41 68 °F 24.3 °F 30.1 in ENE 0.9 mph 6 mph 19% 0 in 206 W/m2
18:46 67.8 °F 24.1 °F 30.1 in East 0.9 mph 5 mph 19% 0 in 246 W/m2
18:51 67.8 °F 24.1 °F 30.1 in NE 2.9 mph 6 mph 19% 0 in 207 W/m2
18:56 68 °F 24.3 °F 30.1 in East 6 mph 7 mph 19% 0 in 200 W/m2
19:01 67.8 °F 22.8 °F 30.1 in East 4 mph 9 mph 18% 0 in 190 W/m2
19:06 67.6 °F 23.9 °F 30.1 in ENE 2 mph 5 mph 19% 0 in 137 W/m2
19:11 67.5 °F 23.7 °F 30.1 in Calm   9 mph 19% 0 in 130 W/m2
19:16 67.5 °F 25 °F 30.1 in East 0.9 mph 4 mph 20% 0 in 107 W/m2
19:21 67.3 °F 23.5 °F 30.1 in East 2 mph 7 mph 19% 0 in 93 W/m2
19:26 66.9 °F 24.6 °F 30.1 in NE 2 mph 4 mph 20% 0 in 81 W/m2
19:31 66.6 °F 25.3 °F 30.1 in NE 0.9 mph 3 mph 21% 0 in 93 W/m2
19:36 66.4 °F 30.4 °F 30.1 in Calm   2 mph 26% 0 in 76 W/m2
19:41 65.8 °F 30.9 °F 30.1 in SE 0.9 mph 2 mph 27% 0 in 65 W/m2
19:46 65.1 °F 32 °F 30.1 in SSE 0.9 mph 2 mph 29% 0 in 58 W/m2
19:51 64.9 °F 32.7 °F 30.1 in Calm   1 mph 30% 0 in 44 W/m2
19:57 64.6 °F 34 °F 30.1 in SSE 0.9 mph 2 mph 32% 0 in 30 W/m2
20:02 64 °F 33.6 °F 30.1 in SSE 0.9 mph 1 mph 32% 0 in 23 W/m2
20:07 63.1 °F 33.6 °F 30.1 in SSE 0.9 mph 1 mph 33% 0 in 19 W/m2
20:12 62.2 °F 32.7 °F 30.1 in SSE 0.9 mph 2 mph 33% 0 in 18 W/m2
20:17 61.2 °F 32.5 °F 30.1 in SSE 0.9 mph 1 mph 34% 0 in 12 W/m2
20:22 60.3 °F 32.5 °F 30.1 in SSE 0.9 mph 2 mph 35% 0 in 9 W/m2
20:27 59.4 °F 32.4 °F 30.1 in SSE 0.9 mph 2 mph 36% 0 in 5 W/m2
20:32 58.5 °F 31.6 °F 30.1 in SSE 0.9 mph 2 mph 36% 0 in 5 W/m2
20:37 57.7 °F 31.6 °F 30.1 in SSE 0.9 mph 2 mph 37% 0 in 0 W/m2
20:42 57 °F 31.6 °F 30.1 in SSE 2 mph 2 mph 38% 0 in 0 W/m2
20:47 56.5 °F 31.1 °F 30.1 in SSE 2 mph 2 mph 38% 0 in 0 W/m2
20:52 55.8 °F 31.1 °F 30.1 in SSE 0.9 mph 2 mph 39% 0 in 0 W/m2
20:57 55.2 °F 31.3 °F 30.1 in SSE 0.9 mph 1 mph 40% 0 in 0 W/m2
21:02 54.7 °F 31.5 °F 30.1 in SSE 0.9 mph 2 mph 41% 0 in 0 W/m2
21:07 54.3 °F 31.6 °F 30.1 in SSE 0.9 mph 2 mph 42% 0 in 0 W/m2
21:12 54 °F 32 °F 30.1 in SSE 0.9 mph 2 mph 43% 0 in 0 W/m2
21:17 53.6 °F 31.6 °F 30.1 in SSE 0.9 mph 1 mph 43% 0 in 0 W/m2
21:22 53.4 °F 30.9 °F 30.1 in SSE 0.9 mph 2 mph 42% 0 in 0 W/m2
21:27 53.4 °F 31.5 °F 30.1 in Calm   2 mph 43% 0 in 0 W/m2
21:32 53.2 °F 30.7 °F 30.1 in Calm   1 mph 42% 0 in 0 W/m2
21:37 53.2 °F 31.8 °F 30.1 in SSE 0.9 mph 2 mph 44% 0 in 0 W/m2
21:42 53.1 °F 31.6 °F 30.1 in Calm   1 mph 44% 0 in 0 W/m2
21:47 52.9 °F 32.2 °F 30.1 in SSE 0.9 mph 2 mph 45% 0 in 0 W/m2
21:52 52.7 °F 32 °F 30.1 in SSE 0.9 mph 2 mph 45% 0 in 0 W/m2
21:57 52.5 °F 32.4 °F 30.1 in SSE 0.9 mph 1 mph 46% 0 in 0 W/m2
22:02 52.3 °F 32.7 °F 30.1 in SSE 0.9 mph 2 mph 47% 0 in 0 W/m2
22:07 52.2 °F 32.5 °F 30.1 in Calm   1 mph 47% 0 in 0 W/m2
22:12 52 °F 32.9 °F 30.1 in Calm   2 mph 48% 0 in 0 W/m2
22:17 51.6 °F 33.1 °F 30.1 in SSE 0.9 mph 1 mph 49% 0 in 0 W/m2
22:22 51.3 °F 32.7 °F 30.1 in Calm   1 mph 49% 0 in 0 W/m2
22:27 50.9 °F 32.9 °F 30.1 in SSE 0.9 mph 2 mph 50% 0 in 0 W/m2
22:32 50.5 °F 32 °F 30.1 in Calm   2 mph 49% 0 in 0 W/m2
22:37 50.4 °F 32.9 °F 30.1 in SSE 0.9 mph 2 mph 51% 0 in 0 W/m2
22:42 50.2 °F 33.3 °F 30.1 in SSE 2 mph 2 mph 52% 0 in 0 W/m2
22:47 49.8 °F 32.9 °F 30.1 in SSE 2 mph 2 mph 52% 0 in 0 W/m2
22:52 49.6 °F 33.3 °F 30.1 in Calm   2 mph 53% 0 in 0 W/m2
22:57 49.5 °F 33.1 °F 30.1 in SSE 0.9 mph 2 mph 53% 0 in 0 W/m2
23:02 49.3 °F 32.9 °F 30.1 in SSE 0.9 mph 2 mph 53% 0 in 0 W/m2
23:07 49.1 °F 32.7 °F 30.1 in Calm     53% 0 in 0 W/m2
23:12 48.9 °F 33.1 °F 30.1 in Calm   2 mph 54% 0 in 0 W/m2
23:17 48.7 °F 32.9 °F 30.1 in Calm     54% 0 in 0 W/m2
Juneau County Weather
Compliments of Weather Underground - 2 mb